www.pogodaiklimat.ru

Погода и климат >> Архив погоды >> Норвегия >> Тромсё аэропорт


ПОГОДА в Тромсё аэропорту

  • Прогноз погоды в Тромсё аэропорту
  • Монитор погоды в Тромсё аэропорту

АРХИВ ПОГОДЫ в Тромсё аэропорту

Время (UTC), дата Ветер
(напр.,м/с)
 
Видим.   Явления Облачность Т
(С)
Тd
(С)
f
(%)
Тe
(С)
Тes
(С)
Комфортность P
(гПа)
Po
(гПа)
Тmin
(С)
Tmax
(С)
R
(мм)
R24
(мм)
S
(см)
10 11.09 С 4
{6}
40 км ясно +14.4 +10.6 78 +13 +15 1003.9 1002.8
11 11.09 С 2
{6}
40 км ясно +15.8 +11.4 75 +16 +19 1002.9 1001.8
12 11.09 Ю 7
{10}
28 км ясно +19.6 +9.2 51 +20 +21 1002.3 1001.1
13 11.09 Ю 6
{11}
35 км ясно +17.9 +8.5 54 +17 +18 1001.5 1000.3
14 11.09 Ю 7
{13}
30 км ясно +20.8 +8.5 45 +22 +22 комфорт 1000.8 999.7
15 11.09 ЮЗ 6
{11}
25 км 5/0
[]
+15.4 +8.4 63 +14 +14 999.9 998.8
16 11.09 ЮЗ 5
{10}
30 км 8/0
[]
+15.2 +9.1 67 +14 +14 999.2 998.0
17 11.09 ЮЗ 5
{7}
27 км 10/0
[]
+15.9 +9.8 67 +15 +15 998.6 997.5
18 11.09 Ю 7
{13}
24 км 5/0
[]
+16.6 +9.8 64 +15 +15 998.0 996.9 +10.0 +21.2
19 11.09 Ю 6
{13}
35 км 3/0
[]
+15.4 +8.6 64 +14 +14 997.5 996.4
20 11.09 Ю 8
{12}
35 км 3/0
[]
+16.3 +9.3 63 +15 +15 997.0 995.8
21 11.09 Ю 6
{9}
30 км 1/0
[]
+13.1 +8.6 74 +11 +11 996.5 995.3
22 11.09 Ю 8
{13}
50 км 1/0
[]
+15.0 +8.7 66 +13 +13 995.7 994.6
23 11.09 Ю 5
{12}
50 км 3/0
[]
+16.0 +8.7 62 +15 +15 995.8 994.6
00 12.09 З 5
{13}
45 км 3/0
[]
+14.0 +8.2 68 +12 +12 995.6 994.4
01 12.09 СВ 2
{6}
45 км в посл. час морось 1/0
[]
+13.6 +8.7 72 +13 +13 995.5 994.3
02 12.09 Ю 3
{7}
50 км 10/0 2000 м
[]
+14.9 +8.6 66 +14 +14 995.1 993.9
03 12.09 Ю 2
{3}
50 км 10/10 1500 м
[]
+13.4 +9.1 75 +13 +13 995.2 994.0
04 12.09 Ю 2
{6}
35 км слаб. ливневой дождь 10/10 1500 м
[]
+12.7 +9.5 81 +12 +12 995.5 994.3
05 12.09 З 2
{4}
7000 м слаб. ливневой дождь 10/0
[]
+11.3 +9.9 91 +10 +10 996.2 995.0
06 12.09 В 2
{7}
10 км слаб. дождь 10/10 1500 м
[]
+11.7 +10.6 93 +10 +10 996.1 994.9 +11.1 +17.0 4
07 12.09
{3}
13 км слаб. морось 9/9 1500 м
[]
+11.5 +10.7 95 995.7 994.6
08 12.09 ЮЗ 1
{2}
11 км слаб. дождь 10/10 600 м
[]
+11.7 +10.6 93 +11 +11 995.9 994.8
09 12.09 З 2
{3}
8000 м дождь 10/0
[]
+11.2 +10.4 95 +10 +11 995.9 994.7
10 12.09 Ю 1
{3}
10 км слаб. дождь 10/0
[]
+11.2 +10.6 96 +11 +13 995.8 994.6
11 12.09 Ю 5
{7}
16 км слаб. дождь 10/0
[]
+12.1 +9.8 86 +10 +11 995.9 994.7
12 12.09 Ю 5
{9}
26 км слаб. дождь 10/0
[]
+12.1 +10.2 88 +10 +10 995.7 994.6
13 12.09 Ю 5
{7}
45 км слаб. морось 10/10 1500 м
[]
+12.1 +10.4 89 +10 +10 995.8 994.6
14 12.09 Ю 5
{9}
40 км слаб. морось 8/8 1500 м
[]
+12.3 +9.3 82 +10 +10 995.7 994.5
15 12.09 Ю 6
{10}
45 км в посл. час морось 1/0
[]
+12.5 +9.5 82 +10 +10 995.8 994.7
16 12.09 З 10
{15}
6000 м дождь 10/0
[]
+10.1 +7.4 83 +6 +6 996.1 994.9
17 12.09 З 7
{13}
18 км слаб. ливневой дождь 10/10 600 м
[]
+10.0 +7.4 84 +6 +6 996.9 995.8
18 12.09 З 4
{15}
35 км в посл. час морось 10/10 600 м
[]
+10.2 +6.7 79 +8 +8 997.2 996.1 +12.6 9
19 12.09 Ю 1
{7}
17 км слаб. ливневой дождь 10/10 300 м
[]
+9.5 +8.0 90 +9 +9 997.4 996.2
20 12.09 Ю 5
{6}
50 км в посл. час морось 10/10 1000 м
[]
+9.5 +7.6 88 +6 +6 997.4 996.2
21 12.09 Ю 5
{6}
50 км 10/10 1000 м
[]
+9.4 +6.8 84 +6 +6 997.4 996.2
22 12.09 ЮЗ 2
{6}
50 км 10/10 1000 м
[]
+9.1 +6.4 83 +7 +7 997.4 996.3
23 12.09 ЮЗ 6
{7}
50 км в посл. час осадки 9/9 1500 м
[]
+9.1 +6.2 82 +5 +5 997.4 996.2
00 13.09 ЮЗ 2
{8}
50 км 10/10 1000 м
[]
+9.0 +5.9 81 +7 +7 997.6 996.4
01 13.09 ЮЗ 2
{4}
45 км 10/10 600 м
[]
+8.9 +5.8 81 +7 +7 997.7 996.5
02 13.09 З 5
{9}
50 км в посл. час морось 10/10 600 м
[]
+8.3 +5.9 85 +5 +5 997.8 996.6
03 13.09 ЮЗ 3
{7}
50 км в посл. час морось 10/10 600 м
[]
+8.2 +5.5 83 +6 +6 998.0 996.8
04 13.09 ЮЗ 2
{7}
50 км слаб. ливневой дождь 10/10 1000 м
[]
+7.6 +5.6 87 +5 +5 998.3 997.1
05 13.09 ЮЗ 1
{3}
50 км слаб. ливневой дождь 9/9 1000 м
[]
+7.8 +5.8 87 +7 +7 998.6 997.5
06 13.09 Ю 2
{9}
50 км 10/0
[]
+8.1 +6.4 89 +6 +6 998.8 997.7 +7.3 +10.2 0.2
07 13.09 З 4
{6}
9000 м слаб. дождь 10/10 600 м
[]
+7.9 +5.7 86 +5 +5 999.6 998.4
08 13.09 ЮЗ 3
{6}
16 км слаб. ливневой дождь 10/10 1000 м
[]
+7.8 +5.6 86 +5 +5 1000.0 998.8
09 13.09 З 2
{6}
50 км 10/10 600 м
[]
+7.9 +5.4 84 +6 +6 1000.5 999.4
10 13.09 ЮЗ 4 11 км слаб. ливневой дождь ?/? +8.4 +6.4 87 +5 +5 1001.3 1000.1
11 13.09 З 6 35 км 9/9 1000 м
[]
+8.9 +3.5 69 +5 +5 1002.0 1000.9
12 13.09 З 6
{12}
10 км ливневой дождь ?/? +7.8 +4.2 78 +4 +4 1002.8 1001.6
13 13.09 З 8 19 км слаб. ливневой дождь 5/0
[]
+8.1 +4.9 80 +3 +4 1003.4 1002.3
14 13.09 ЮЗ 5 40 км в посл. час дождь 5/0
[]
+8.8 +4.4 74 +5 +6 1004.0 1002.8
15 13.09 ЮЗ 5 30 км в посл. час дождь 8/0
[]
+8.4 +4.6 77 +5 +5 1004.5 1003.3
16 13.09 Ю 3 40 км 9/9 1000 м
[]
+8.2 +3.5 72 +6 +6 1004.8 1003.6
17 13.09 ЮЗ 4 50 км слаб. ливневой дождь 10/10 600 м
[]
+7.8 +3.7 75 +5 +5 1005.5 1004.3
18 13.09 ЮЗ 4
{12}
45 км слаб. ливневой дождь 9/9 1000 м
[]
+7.7 +3.0 72 +5 +5 1005.7 1004.5 +9.1 3
19 13.09 З 5 28 км слаб. ливневой дождь 10/10 600 м
[]
+7.0 +4.0 81 +3 +3 1006.2 1005.0
20 13.09 Ю 4 13 км слаб. ливневой дождь 8/0
[]
+6.0 +4.2 88 +2 +2 1006.4 1005.2
21 13.09 ЮЗ 5 50 км в посл. час осадки 10/10 600 м
[]
+6.4 +3.9 84 +2 +2 1006.6 1005.4
22 13.09 ЮЗ 3 16 км слаб. ливневой дождь 10/10 600 м
[]
+6.3 +3.8 84 +3 +3 1006.8 1005.6
23 13.09 ЮЗ 3 15 км ливневой дождь 8/0
[]
+6.1 +3.9 86 +3 +3 1007.0 1005.8
00 14.09 Ю 4
{11}
50 км в посл. час дождь 10/10 1000 м
[]
+5.8 +4.3 90 +2 +2 1006.9 1005.7
01 14.09 ЮЗ 5
{7}
22 км слаб. ливневой дождь 10/10 600 м
[]
+6.1 +4.3 88 +2 +2 1007.1 1005.9
02 14.09 Ю 4
{6}
50 км слаб. дождь 10/10 600 м
[]
+5.8 +4.0 88 +2 +2 1007.1 1005.9
03 14.09 Ю 3 50 км в посл. час дождь 9/9 600 м
[]
+5.7 +4.2 90 +2 +2 1007.0 1005.9
04 14.09 З 3
{7}
16 км слаб. ливневой дождь 10/10 600 м
[]
+5.7 +3.9 88 +2 +2 1007.3 1006.1
05 14.09 ЮЗ 5
{7}
50 км ливневой дождь 10/10 1000 м
[]
+6.2 +4.0 86 +2 +2 1007.2 1006.1
06 14.09 ЮЗ 4
{7}
30 км слаб. ливневой дождь 10/0 2000 м
[]
+6.2 +4.0 86 +2 +2 1007.4 1006.2 +5.5 +7.8 4
07 14.09 Ю 5 30 км ливневой дождь 6/0
[]
+6.5 +4.3 86 +2 +3 1007.3 1006.1
09 14.09 Ю 7
{10}
14 км слаб. дождь ?/? +6.9 +4.1 82 +2 +2 1007.6 1006.5
10 14.09 ЮЗ 5
{9}
40 км слаб. ливневой дождь 10/10 300 м
[]
+6.9 +4.7 86 +3 +3 1007.9 1006.7
11 14.09 Ю 6
{8}
30 км слаб. ливневой дождь 10/10 600 м
[]
+6.8 +4.5 85 +2 +2 1007.9 1006.7
12 14.09 Ю 6 50 км в посл. час дождь 8/8 1000 м
[]
+7.8 +4.0 77 +4 +4 1007.8 1006.6
13 14.09 Ю 6
{9}
45 км слаб. ливневой дождь 10/10 1000 м
[]
+7.4 +3.7 77 +3 +3 1007.7 1006.5
14 14.09 Ю 5
{10}
45 км 10/10 1000 м
[]
+7.7 +4.1 78 +4 +4 1007.8 1006.6
15 14.09 Ю 7
{9}
50 км в посл. час морось 8/8 1000 м
[]
+7.5 +3.4 75 +3 +3 1007.6 1006.4
16 14.09 Ю 6
{8}
50 км 6/0
[]
+7.2 +3.1 75 +3 +3 1007.0 1005.9
17 14.09 Ю 5
{8}
50 км 1/1 1000 м
[]
+6.3 +2.8 78 +2 +2 1006.4 1005.2
18 14.09 Ю 4
{10}
50 км ясно +5.9 +2.4 78 +2 +2 1005.8 1004.6 2
19 14.09 Ю 4
{6}
50 км ясно +5.6 +3.3 85 +2 +2 1005.3 1004.1
20 14.09 ЮВ 1
{6}
50 км 9/9 1000 м
[]
+4.9 +2.6 85 +4 +4 1004.6 1003.4
21 14.09 СВ 2
{4}
50 км 1/0
[]
+3.5 +2.2 91 0 0 1003.5 1002.3
22 14.09 СВ 2
{3}
50 км ясно +3.0 +2.0 93 -0 -0 1002.6 1001.4
23 14.09 СВ 2
{3}
50 км ясно +2.9 +1.9 93 -0 -0 1001.7 1000.5
00 15.09 СВ 2
{6}
50 км ясно +3.0 +1.5 90 -0 -0 1000.6 999.4
01 15.09 Ю 1
{3}
50 км ясно +2.4 +0.6 88 +1 +1 999.3 998.1
02 15.09 В 1
{3}
50 км ясно +1.5 +0.4 92 -0 -0 998.0 996.8
03 15.09 В 2
{5}
50 км ясно +3.1 +1.3 88 0 0 996.9 995.7
04 15.09 ЮВ 2
{4}
50 км ясно +2.6 +1.1 90 -1 -1 996.2 995.0
05 15.09 ЮВ 1
{4}
50 км ясно +2.3 +0.7 89 +1 +1 995.2 994.0
06 15.09 СВ 2
{5}
45 км ясно +3.6 +1.6 87 +1 +1 994.3 993.1 +1.5 +5.9
07 15.09 СВ 2
{4}
45 км ясно +6.8 +2.7 75 +5 +6 993.9 992.7
08 15.09 ЮЗ 3
{6}
40 км ясно +9.0 +1.9 61 +7 +8 993.5 992.3
09 15.09 Ю 3
{7}
40 км ясно +10.6 +1.2 52 +9 +11 993.1 992.0
10 15.09 ЮВ 5
{9}
40 км 6/0
[]
+11.3 +0.1 46 +9 +10 993.1 991.9
11 15.09 Ю 6
{10}
35 км 3/0
[]
+11.2 +2.5 55 +8 +9 993.3 992.2
12 15.09 Ю 5
{10}
40 км ясно +10.5 +2.8 59 +8 +9 993.5 992.3
13 15.09 Ю 5
{8}
45 км ясно +10.5 +3.3 61 +8 +9 993.7 992.5
14 15.09 Ю 5
{7}
40 км 8/0
[]
+11.1 +3.2 58 +9 +9 993.9 992.7
15 15.09 Ю 3
{7}
50 км ясно +10.0 +3.1 62 +8 +9 994.0 992.9
16 15.09 Ю 1
{4}
50 км ясно +9.5 +2.8 63 +9 +9 994.4 993.2
17 15.09 СЗ 1
{3}
50 км ясно +8.2 +2.9 69 +8 +8 994.8 993.6
18 15.09 В 1
{8}
50 км 4/0
[]
+6.4 +2.9 78 +5 +5 995.1 993.9 +3.9 +11.8
19 15.09 СВ 1
{5}
50 км ясно +5.2 +2.7 84 +4 +4 995.6 994.4
20 15.09 ЮВ 2
{4}
50 км 1/0
[]
+5.3 +2.7 83 +3 +3 995.8 994.6
21 15.09 С 1
{5}
50 км 4/0
[]
+4.5 +2.4 86 +3 +3 996.2 995.1
22 15.09 В 1
{3}
50 км ясно +4.0 +2.0 87 +3 +3 996.7 995.5
23 15.09 СВ 2
{3}
50 км ясно +3.6 +2.0 89 +1 +1 997.2 996.0
00 16.09 В 1
{5}
50 км ясно +3.3 +1.7 89 +2 +2 997.6 996.4
01 16.09 В 1
{2}
50 км ясно +2.9 +1.6 91 +1 +1 997.9 996.7
02 16.09 СВ 2
{2}
50 км ясно +3.0 +1.4 89 -0 -0 998.1 996.9
03 16.09 В 1
{2}
50 км ясно +2.5 +0.9 89 +1 +1 998.3 997.1
04 16.09 СВ 3
{4}
50 км ясно +3.3 +1.4 87 -1 -1 998.5 997.3
05 16.09 СВ 2
{5}
50 км ясно +3.1 +1.2 87 0 0 998.6 997.4
06 16.09 ЮВ 1
{5}
29 км ясно +4.4 +1.9 84 +3 +3 998.8 997.6 +2.2 +6.4
07 16.09 ЮВ 1
{1}
30 км ясно +6.1 +2.9 80 +5 +6 999.2 998.0
08 16.09 С 2
{4}
40 км ясно +7.6 +2.1 68 +6 +8 999.3 998.1
09 16.09 С 4
{5}
45 км ясно +8.5 +2.3 65 +6 +7 999.7 998.5
10 16.09 С 4
{6}
40 км 3/0
[]
+9.5 -0.1 51 +7 +9 999.9 998.8
11 16.09 СВ 5
{7}
35 км ясно +9.8 -1.8 44 +7 +9 1000.1 998.9
12 16.09 СВ 5
{8}
45 км 5/0
[]
+9.6 -0.0 51 +7 +8 1000.2 999.0
13 16.09 СВ 5
{7}
50 км 5/0
[]
+9.4 +0.3 53 +7 +7 1000.2 999.0
14 16.09 СВ 5
{8}
45 км 5/0
[]
+9.1 +1.5 59 +6 +7 1000.3 999.1
15 16.09 С 5
{8}
50 км 10/0
[]
+8.8 +2.2 63 +6 +6 1000.4 999.2
16 16.09 СВ 4
{7}
50 км 10/0
[]
+8.4 +2.0 64 +6 +6 1000.3 999.1
17 16.09
{6}
50 км 10/0
[]
+7.5 +3.2 74 1000.3 999.1
18 16.09 СВ 3
{8}
50 км 10/0 2000 м
[]
+7.5 +2.6 71 +5 +5 1000.5 999.3 +4.4 +10.3 0.0
19 16.09 СВ 2
{4}
50 км 8/0
[]
+6.7 +3.0 77 +5 +5 1000.6 999.4
20 16.09 СВ 1
{6}
45 км 1/0
[]
+6.1 +3.3 82 +5 +5 1000.8 999.6
21 16.09 В 1
{4}
45 км 3/0
[]
+4.9 +2.6 85 +4 +4 1000.9 999.7
22 16.09 СВ 1
{3}
50 км ясно +4.3 +2.5 88 +3 +3 1001.1 999.9
23 16.09 В 1
{3}
50 км ясно +4.0 +1.9 86 +3 +3 1001.2 1000.0
00 17.09 В 1
{6}
50 км 3/0
[]
+4.1 +2.1 87 +3 +3 1001.4 1000.2
01 17.09 ЮВ 1
{2}
50 км 9/0
[]
+3.8 +2.2 89 +2 +2 1001.7 1000.5
02 17.09 Ю 2
{2}
50 км 10/0 2000 м
[]
+4.1 +2.6 90 +1 +1 1001.8 1000.7
03 17.09 ЮВ 1
{2}
50 км 10/0 2000 м
[]
+4.0 +3.0 93 +2 +2 1002.0 1000.8
04 17.09 В 1
{2}
50 км 10/0
[]
+3.8 +2.8 93 +2 +2 1002.4 1001.2
05 17.09 В 1
{4}
50 км 4/0
[]
+3.9 +3.0 94 +2 +2 1002.5 1001.3
06 17.09 Ю 1
{4}
30 км 10/0 2000 м
[]
+5.1 +3.8 91 +4 +4 1002.7 1001.5 +3.5 +7.5
07 17.09 Ю 2
{4}
45 км ясно +6.0 +3.8 86 +4 +4 1003.1 1001.9
08 17.09 ЮЗ 1
{3}
40 км 6/0
[]
+6.4 +4.6 88 +5 +7 1003.6 1002.4
09 17.09 ЮЗ 2
{3}
35 км ясно +7.5 +4.6 82 +5 +8 1004.1 1002.9
10 17.09 Ю 3
{4}
40 км 4/0
[]
+8.1 +4.5 78 +6 +7 1004.4 1003.2
11 17.09 Ю 3
{5}
40 км 3/0
[]
+8.8 +4.6 75 +6 +8 1004.6 1003.5
12 17.09 С 4
{7}
40 км 1/0
[]
+9.7 +2.6 61 +7 +9 1005.0 1003.9
13 17.09 СВ 5
{7}
50 км 3/3 1000 м
[]
+9.5 +2.6 62 +7 +7 1005.3 1004.1
14 17.09 СВ 4
{6}
50 км 4/0
[]
+9.3 +2.0 60 +7 +7 1005.5 1004.3
15 17.09 СВ 4
{8}
50 км ясно +9.2 +2.6 63 +7 +7 1005.8 1004.6
16 17.09 СВ 5
{9}
50 км 1/0
[]
+8.4 +2.4 66 +5 +5 1006.0 1004.8
17 17.09 СВ 6
{9}
50 км ясно +7.6 +2.5 70 +4 +4 1006.1 1004.9
18 17.09 СВ 4
{9}
50 км 6/6 1000 м
[]
+6.9 +2.0 71 +4 +4 1006.6 1005.5 +5.1 +9.7
19 17.09 СВ 3
{6}
50 км 10/0
[]
+6.5 +2.2 74 +4 +4 1007.0 1005.8
20 17.09 СВ 4
{6}
50 км 10/10 1000 м
[]
+6.5 +1.8 72 +3 +3 1007.3 1006.1
21 17.09 СВ 4
{7}
50 км 10/0 2000 м
[]
+6.3 +2.2 75 +3 +3 1007.6 1006.4
22 17.09 С 3
{5}
50 км 10/0 2000 м
[]
+6.1 +2.4 77 +3 +3 1007.9 1006.7
23 17.09 СВ 3
{4}
50 км 10/0
[]
+6.2 +1.9 74 +3 +3 1008.1 1006.9
00 18.09 СВ 4
{7}
50 км 10/10 600 м
[]
+6.0 +2.1 76 +2 +2 1008.3 1007.1
01 18.09 СВ 4
{7}
50 км 10/10 1000 м
[]
+5.8 +1.9 76 +2 +2 1008.5 1007.3
02 18.09 СВ 5
{8}
50 км 5/0
[]
+5.2 +1.2 75 +1 +1 1008.8 1007.6
03 18.09 СВ 3
{7}
50 км 10/10 1000 м
[]
+5.2 +1.7 78 +2 +2 1009.1 1007.9
04 18.09 С 4
{6}
50 км 8/0
[]
+5.0 +1.3 77 +1 +1 1009.5 1008.3
05 18.09 СВ 5
{9}
50 км 6/0
[]
+5.1 +0.5 72 +1 +1 1009.8 1008.6
06 18.09 СВ 4
{9}
50 км 8/0
[]
+5.5 +0.3 69 +2 +2 1010.3 1009.1 +4.5 +6.9
07 18.09 С 5
{10}
40 км 10/10 600 м
[]
+6.0 +1.7 74 +2 +2 1010.9 1009.7
08 18.09
{10}
40 км 9/9 600 м
[]
+6.1 +1.1 70 1011.3 1010.1
09 18.09 С 6
{9}
40 км 10/10 1000 м
[]
+6.7 -0.3 61 +3 +3 1011.8 1010.6

 

Местоположение метеостанции Тромсё аэропорт (Норвегия): широта 69.68 долгота 18.91 высота над уровнем моря 8 м.

В архиве по умолчанию представлена погода в Тромсё аэропорту за последнюю неделю. Архивные данные за месяц целиком и за предыдущие месяцы, начиная с января 2011 года, Вы можете получить, выбрав интересующий диапазон дат из раскрывающегося списка и нажав кнопку "Ввод!".


*Определитесь, кто Вы:
робот инопланетянин человек

Внимание! Время в таблицах - всемирное. Для получения местного времени необходимо прибавить поправку, которая равна 1 ч.

Смотрите также архив погоды в соседних городах и на ближайших метеорологических станциях:

Погода в Тромсё (Холт) (Норвегия) (3 км)
Погода в Тромсё (Норвегия) (4 км)
Погода на Маяке Hekkingen (Норвегия) (43 км)
Погода в Люнгене (Норвегия) (48 км)
Погода в Норднесфьеллете (Норвегия) (60 км)
Погода в Шиботне (Норвегия) (63 км)
Погода на Маяке Torsvag (Норвегия) (67 км)
Погода в Бардуфоссе (Норвегия) (70 км)
Погода в Сёрхьюсен аэропорту (Норвегия) (80 км)
Погода в Килписйарви (Финляндия) (102 км)

Пояснения к столбцам:

Ветер - указаны скорость ветра в м/с - средняя за 10 мин, порывы в срок и между сроками (в фигурных скобках) и направление, откуда дует ветер: С - северный, СВ - северо-восточный, В - восточный, ЮВ - юго-восточный, Ю - южный, ЮЗ - юго-западный, З - западный, СЗ - северо-западный.
Видимость - горизонтальная дальность видимости в метрах или километрах. При видимости от 1 до 10 км при отсутствии осадков обычно наблюдается дымка, при ухудшении видимости до 1 км и менее - туман. В сухую погоду видимость может ухудшаться дымом, пылью или мглою.
Явления - указаны атмосферные явления, наблюдавшиеся в срок или в последний час перед сроком; фигурными скобками обозначены явления, наблюдавшиеся между сроками (за 1-3 часа до срока); квадратными скобками обозначены град или гололедные отложения с указанием их диаметра в мм.
Облачность - указаны через наклонную черту общая и нижняя облачность в баллах и высота нижней границы облаков в метрах; квадратными скобками обозначены формы облаков: Ci - перистые, Cs - перисто-слоистые, Cc - перисто-кучевые, Ac - высококучевые, As - высокослоистые, Sc - слоисто-кучевые, Ns - слоисто-дождевые, Cu - кучевые, Cb - кучево-дождевые. Подробнее классификацию облаков см. в Атласе облаков (PDF).
T - Температура воздуха - температура, измеренная на высоте 2 м над землей.
Td - Температура точки росы - температура, при понижении до которой содержащийся в воздухе водяной пар достигнет насыщения.
f - Относительная влажность воздуха - влажноcть воздуха, измеренная на высоте 2 м над землей.
Te - Эффективная температура - температура, которую ощущает одетый по сезону человек в тени. Характеристика душности погоды. При расчете учитывается влияние влажности воздуха и скорости ветра на теплоощущения человека.
Tes - Эффективная температура на солнце - температура, которую ощущает человек, с поправкой на солнечный нагрев. Характеристика знойности погоды. Зависит от высоты солнца над горизонтом, облачности и скорости ветра. Ночью, в пасмурную погоду, а также при ветре 12 м/с и более поправка равна нулю.
P - Атмосферное давление - приведенное к уровню моря атмосферное давление.
Po - Атмосферное давление - измеренное на уровне метеостанции атмосферное давление.
Tmin - Минимальная температура - минимум температуры воздуха на высоте 2 м над землей.
Tmax - Максимальная температура - максимум температуры воздуха на высоте 2 м над землей.
R - Количество осадков - Количество выпавших осадков за период времени, мм. При наведении курсора мыши на число - период времени, за который выпало указанное количество осадков.
R24 - Количество осадков - Количество выпавших осадков за 24 часа, мм.
S - Снежный покров - Высота снежного покрова, см. При наведении курсора мыши на число - состояние снежного покрова и степень покрытия местности в баллах.